ASL1958 LJLJ-LYBE

Flight info

Callsign ASL1958
Flight time N/A
Altitude 19000
Route MODRO1Z MODRO DCT MAGAM P735 ZAG L187 KOMAR P11 DER N131 SOMUN/N0448F370 L5 ENUPU
Aircraft A320/M-SDE3FGHIRWY/LB1

Departure

Time N/A
Airport Ljubljana Jože Pučnik Airport (LJLJ)

Arrival

Time 2026-05-05 19:18
Airport Belgrade Nikola Tesla Airport (LYBE)
Time Latitude Longitude Altitude Speed Heading
2026-05-05 18:33 45.86666 15.77762 20486 ft 435 kts 95°
2026-05-05 18:33 45.86461 15.82093 20486 ft 435 kts 95°
2026-05-05 18:33 45.86257 15.86417 20483 ft 435 kts 95°
2026-05-05 18:34 45.86055 15.90743 20484 ft 435 kts 95°
2026-05-05 18:34 45.85851 15.95066 20483 ft 435 kts 95°
2026-05-05 18:34 45.85648 15.99398 20484 ft 434 kts 95°
2026-05-05 18:34 45.85446 16.03716 20483 ft 434 kts 95°
2026-05-05 18:35 45.85242 16.08034 20484 ft 434 kts 95°
2026-05-05 18:35 45.85038 16.12351 20483 ft 434 kts 95°
2026-05-05 18:35 45.84834 16.16672 20484 ft 434 kts 95°
2026-05-05 18:35 45.84633 16.20924 20485 ft 434 kts 95°
2026-05-05 18:36 45.84429 16.25241 20481 ft 433 kts 95°
2026-05-05 18:36 45.84223 16.29610 20486 ft 433 kts 95°
2026-05-05 18:36 45.84020 16.33917 20483 ft 433 kts 95°
2026-05-05 18:36 45.83819 16.38166 20482 ft 433 kts 95°
2026-05-05 18:37 45.83617 16.42473 20484 ft 433 kts 95°
2026-05-05 18:37 45.83413 16.46776 20483 ft 432 kts 95°
2026-05-05 18:37 45.83208 16.51077 20481 ft 432 kts 95°
2026-05-05 18:37 45.83004 16.55373 20481 ft 432 kts 95°
2026-05-05 18:38 45.82799 16.59662 20483 ft 431 kts 95°
2026-05-05 18:38 45.82593 16.63956 20481 ft 431 kts 95°
2026-05-05 18:38 45.82387 16.68239 20479 ft 431 kts 95°
2026-05-05 18:38 45.82180 16.72525 20480 ft 431 kts 95°
2026-05-05 18:39 45.81973 16.76811 20477 ft 430 kts 95°
2026-05-05 18:39 45.81765 16.81090 20481 ft 430 kts 95°
2026-05-05 18:39 45.81454 16.85381 20482 ft 439 kts 103°
2026-05-05 18:39 45.80514 16.89605 20483 ft 452 kts 112°
2026-05-05 18:40 45.79402 16.93877 20487 ft 462 kts 112°
2026-05-05 18:40 45.78265 16.98200 20487 ft 464 kts 112°
2026-05-05 18:40 45.77115 17.02529 20487 ft 465 kts 112°
2026-05-05 18:40 45.75961 17.06852 20490 ft 465 kts 112°
2026-05-05 18:41 45.74804 17.11181 20491 ft 465 kts 112°
2026-05-05 18:41 45.73652 17.15499 20490 ft 465 kts 112°
2026-05-05 18:41 45.72497 17.19831 20491 ft 465 kts 112°
2026-05-05 18:41 45.71346 17.24149 20491 ft 465 kts 112°
2026-05-05 18:42 45.70195 17.28475 20493 ft 465 kts 112°
2026-05-05 18:42 45.69043 17.32798 20496 ft 465 kts 112°
2026-05-05 18:42 45.67889 17.37118 20491 ft 465 kts 112°
2026-05-05 18:42 45.66728 17.41440 20495 ft 466 kts 112°
2026-05-05 18:43 45.65564 17.45757 20493 ft 466 kts 112°
2026-05-05 18:43 45.64395 17.50075 20492 ft 466 kts 112°
2026-05-05 18:43 45.63223 17.54398 20491 ft 466 kts 113°
2026-05-05 18:43 45.62052 17.58722 20492 ft 467 kts 112°
2026-05-05 18:44 45.60883 17.63050 20493 ft 467 kts 112°
2026-05-05 18:44 45.59713 17.67380 20491 ft 467 kts 112°
2026-05-05 18:44 45.58544 17.71701 20493 ft 467 kts 112°
2026-05-05 18:44 45.57370 17.76023 20496 ft 467 kts 113°
2026-05-05 18:45 45.56195 17.80335 20495 ft 466 kts 112°
2026-05-05 18:45 45.55031 17.84590 20494 ft 466 kts 112°
2026-05-05 18:45 45.53836 17.88940 20493 ft 465 kts 113°
2026-05-05 18:45 45.52652 17.93234 20492 ft 465 kts 113°
2026-05-05 18:46 45.51484 17.97470 20493 ft 465 kts 113°
2026-05-05 18:46 45.50302 18.01761 20498 ft 465 kts 113°
2026-05-05 18:46 45.49118 18.06050 20492 ft 465 kts 113°
2026-05-05 18:46 45.47934 18.10333 20493 ft 464 kts 113°
2026-05-05 18:47 45.46747 18.14619 20492 ft 464 kts 113°
2026-05-05 18:47 45.45562 18.18898 20494 ft 464 kts 113°
2026-05-05 18:47 45.44377 18.23173 20487 ft 464 kts 113°
2026-05-05 18:47 45.43593 18.26003 20495 ft 464 kts 113°
2026-05-05 18:48 45.42407 18.30278 20489 ft 464 kts 113°
2026-05-05 18:48 45.41219 18.34561 20488 ft 464 kts 113°
2026-05-05 18:48 45.40023 18.38817 20485 ft 464 kts 115°
2026-05-05 18:48 45.38389 18.42746 20500 ft 460 kts 130°
2026-05-05 18:49 45.36128 18.45931 20492 ft 457 kts 145°
2026-05-05 18:49 45.33457 18.48371 20502 ft 456 kts 150°
2026-05-05 18:49 45.30741 18.50700 20487 ft 456 kts 151°
2026-05-05 18:49 45.28017 18.53010 20486 ft 456 kts 151°
2026-05-05 18:50 45.25287 18.55313 20493 ft 457 kts 151°
2026-05-05 18:50 45.22553 18.57623 20491 ft 457 kts 151°
2026-05-05 18:50 45.19827 18.59935 20489 ft 457 kts 151°
2026-05-05 18:50 45.17100 18.62252 20503 ft 457 kts 150°
2026-05-05 18:51 45.14368 18.64575 20494 ft 458 kts 150°
2026-05-05 18:51 45.11640 18.66893 20498 ft 458 kts 150°
2026-05-05 18:51 45.08905 18.69211 20499 ft 458 kts 150°
2026-05-05 18:51 45.06170 18.71524 20497 ft 458 kts 150°
2026-05-05 18:52 45.03469 18.73806 20495 ft 458 kts 150°
2026-05-05 18:52 45.00732 18.76116 20496 ft 459 kts 150°
2026-05-05 18:52 44.97989 18.78425 20501 ft 459 kts 150°
2026-05-05 18:52 44.95208 18.80765 20501 ft 459 kts 150°
2026-05-05 18:53 44.92508 18.83041 20511 ft 459 kts 150°
2026-05-05 18:53 44.89761 18.85360 20314 ft 459 kts 150°
2026-05-05 18:53 44.87060 18.87636 19798 ft 446 kts 150°
2026-05-05 18:53 44.84434 18.89841 19295 ft 434 kts 150°
2026-05-05 18:54 44.81870 18.91987 18799 ft 424 kts 151°
2026-05-05 18:54 44.79363 18.94082 18313 ft 416 kts 150°
2026-05-05 18:54 44.76893 18.96144 17763 ft 410 kts 151°
2026-05-05 18:54 44.74456 18.98179 17209 ft 404 kts 150°
2026-05-05 18:55 44.72051 19.00187 16666 ft 400 kts 150°
2026-05-05 18:55 44.69674 19.02169 16126 ft 395 kts 151°
2026-05-05 18:55 44.67329 19.04120 15608 ft 389 kts 151°
2026-05-05 18:55 44.65053 19.06138 15097 ft 385 kts 144°
2026-05-05 18:56 44.63155 19.08654 14591 ft 367 kts 132°
2026-05-05 18:56 44.61764 19.11554 14087 ft 351 kts 120°
2026-05-05 18:56 44.60871 19.14666 13575 ft 338 kts 109°
2026-05-05 18:56 44.60449 19.17852 13023 ft 328 kts 97°
2026-05-05 18:57 44.60473 19.21017 12474 ft 320 kts 86°
2026-05-05 18:57 44.60726 19.24077 11936 ft 311 kts 86°
2026-05-05 18:57 44.60970 19.27053 11407 ft 303 kts 86°
2026-05-05 18:57 44.61204 19.29955 10893 ft 296 kts 86°
2026-05-05 18:58 44.61431 19.32796 10383 ft 290 kts 85°
2026-05-05 18:58 44.61651 19.35573 9877 ft 284 kts 86°
2026-05-05 18:58 44.61856 19.38314 9326 ft 280 kts 86°
2026-05-05 18:58 44.62036 19.41011 8783 ft 276 kts 86°
2026-05-05 18:59 44.62202 19.43682 8243 ft 273 kts 86°
2026-05-05 18:59 44.62365 19.46340 7718 ft 276 kts 86°
2026-05-05 18:59 44.62531 19.49066 7217 ft 283 kts 86°
2026-05-05 18:59 44.62698 19.51818 6848 ft 284 kts 85°
2026-05-05 19:00 44.62867 19.54581 6498 ft 284 kts 85°
2026-05-05 19:00 44.63038 19.57346 6144 ft 284 kts 85°
2026-05-05 19:00 44.63211 19.60104 5795 ft 283 kts 85°
2026-05-05 19:00 44.63387 19.62861 5437 ft 283 kts 85°
2026-05-05 19:01 44.63561 19.65609 5087 ft 283 kts 85°
2026-05-05 19:01 44.63733 19.68357 4740 ft 283 kts 85°
2026-05-05 19:01 44.63903 19.71115 4384 ft 283 kts 85°
2026-05-05 19:01 44.64068 19.73831 4034 ft 283 kts 85°
2026-05-05 19:02 44.64238 19.76624 3688 ft 283 kts 85°
2026-05-05 19:02 44.64404 19.79343 3340 ft 283 kts 85°
2026-05-05 19:02 44.64607 19.82086 2993 ft 283 kts 78°
2026-05-05 19:02 44.65345 19.84623 2647 ft 281 kts 54°
2026-05-05 19:03 44.66720 19.86509 2361 ft 274 kts 29°
2026-05-05 19:03 44.68434 19.87440 2332 ft 256 kts
2026-05-05 19:03 44.70158 19.87440 2330 ft 236 kts 346°
2026-05-05 19:03 44.71701 19.86945 2321 ft 220 kts 343°
2026-05-05 19:04 44.73122 19.86485 2314 ft 205 kts 343°
2026-05-05 19:04 44.74499 19.86039 2311 ft 202 kts 343°
2026-05-05 19:04 44.75870 19.85592 2310 ft 202 kts 343°
2026-05-05 19:04 44.77241 19.85145 2305 ft 202 kts 343°
2026-05-05 19:05 44.78628 19.84692 2304 ft 203 kts 343°
2026-05-05 19:05 44.80010 19.84239 2307 ft 204 kts 343°
2026-05-05 19:05 44.81392 19.83785 2308 ft 204 kts 343°
2026-05-05 19:05 44.82767 19.83334 2315 ft 203 kts 343°
2026-05-05 19:06 44.84142 19.82886 2310 ft 202 kts 343°
2026-05-05 19:06 44.85515 19.82437 2310 ft 203 kts 344°
2026-05-05 19:06 44.86874 19.81994 2309 ft 205 kts 344°
2026-05-05 19:06 44.88287 19.81533 2313 ft 206 kts 344°
2026-05-05 19:07 44.89680 19.81078 2315 ft 205 kts 344°
2026-05-05 19:07 44.91070 19.80623 2312 ft 205 kts 344°
2026-05-05 19:07 44.92461 19.80167 2314 ft 205 kts 344°
2026-05-05 19:07 44.93853 19.79710 2315 ft 206 kts 344°
2026-05-05 19:08 44.95248 19.79253 2314 ft 206 kts 345°
2026-05-05 19:08 44.96640 19.78799 2311 ft 205 kts 345°
2026-05-05 19:08 44.98036 19.78344 2312 ft 206 kts 344°
2026-05-05 19:08 44.99411 19.77894 2316 ft 206 kts 346°
2026-05-05 19:09 45.00823 19.77878 2309 ft 207 kts 14°
2026-05-05 19:09 45.02095 19.78874 2315 ft 209 kts 46°
2026-05-05 19:09 45.02846 19.80616 2313 ft 208 kts 76°
2026-05-05 19:09 45.02900 19.82597 2311 ft 205 kts 107°
2026-05-05 19:10 45.02300 19.84386 2320 ft 202 kts 128°
2026-05-05 19:10 45.01472 19.85983 2320 ft 201 kts 128°
2026-05-05 19:10 45.00697 19.87627 2321 ft 199 kts 125°
2026-05-05 19:10 44.99987 19.89227 2304 ft 185 kts 124°
2026-05-05 19:11 44.99341 19.90703 2293 ft 169 kts 125°
2026-05-05 19:11 44.98752 19.92050 2169 ft 159 kts 125°
2026-05-05 19:11 44.98168 19.93381 1841 ft 159 kts 125°
2026-05-05 19:11 44.97585 19.94712 1510 ft 160 kts 124°
2026-05-05 19:12 44.97020 19.96005 1321 ft 147 kts 124°
2026-05-05 19:12 44.96447 19.97305 1098 ft 177 kts 123°
2026-05-05 19:12 44.95832 19.98689 2301 ft 156 kts 125°
2026-05-05 19:12 44.95263 19.99976 2823 ft 172 kts 125°
2026-05-05 19:13 44.94503 20.01637 2799 ft 213 kts 126°
2026-05-05 19:13 44.93741 20.03277 3651 ft 192 kts 126°
2026-05-05 19:13 44.93060 20.04911 3724 ft 199 kts 122°
2026-05-05 19:13 44.92333 20.06657 3733 ft 215 kts 123°
2026-05-05 19:14 44.91523 20.08524 3733 ft 231 kts 124°
2026-05-05 19:14 44.90655 20.10503 3733 ft 242 kts 124°
2026-05-05 19:14 44.89753 20.12553 3733 ft 249 kts 124°
2026-05-05 19:14 44.88836 20.14636 3755 ft 250 kts 124°
2026-05-05 19:15 44.87947 20.16656 3741 ft 226 kts 124°
2026-05-05 19:15 44.87201 20.18347 3587 ft 182 kts 124°
2026-05-05 19:15 44.86601 20.19873 2983 ft 175 kts 120°
2026-05-05 19:15 44.86027 20.21354 2378 ft 170 kts 123°
2026-05-05 19:16 44.85421 20.22754 1797 ft 165 kts 123°
2026-05-05 19:16 44.84889 20.24168 1289 ft 160 kts 119°
2026-05-05 19:16 44.84329 20.25482 867 ft 154 kts 125°
2026-05-05 19:16 44.83727 20.26704 654 ft 151 kts 122°
2026-05-05 19:17 44.83163 20.27955 533 ft 151 kts 120°
2026-05-05 19:17 44.82613 20.29220 407 ft 151 kts 121°
2026-05-05 19:17 44.82055 20.30458 330 ft 142 kts 122°
2026-05-05 19:17 44.81674 20.31310 331 ft 69 kts 121°
2026-05-05 19:18 44.81448 20.31834 336 ft 58 kts 122°
2026-05-05 19:18 44.81254 20.32248 344 ft 38 kts 138°
2026-05-05 19:18 44.81027 20.32254 344 ft 32 kts 218°
2026-05-05 19:18 44.81039 20.32042 345 ft 21 kts 296°
2026-05-05 19:19 44.81100 20.31873 339 ft 20 kts 297°
2026-05-05 19:19 44.81178 20.31689 339 ft 26 kts 304°
2026-05-05 19:19 44.81288 20.31459 336 ft 30 kts 302°
2026-05-05 19:19 44.81402 20.31200 333 ft 33 kts 302°
2026-05-05 19:20 44.81529 20.30917 336 ft 36 kts 302°
2026-05-05 19:20 44.81668 20.30613 333 ft 38 kts 303°
2026-05-05 19:20 44.81818 20.30288 332 ft 41 kts 299°
2026-05-05 19:20 44.81966 20.29933 329 ft 43 kts 303°
2026-05-05 19:21 44.82104 20.29623 327 ft 27 kts 300°
2026-05-05 19:21 44.82068 20.29500 329 ft 16 kts 217°
2026-05-05 19:21 44.81963 20.29398 326 ft 20 kts 214°
2026-05-05 19:21 44.81969 20.29322 329 ft 8 kts 313°
2026-05-05 19:22 44.81973 20.29313 326 ft 0 kts 304°